Content
SEND FEEDBACK

Daily
Averages
Monthly
Summary
United States of America

ROCK HILL, NEW YORK


Home > North America > United States > New York
Elevation: 1260 feet     Latitude: 41 35N     Longitude: 074 37W

WEATHER
 
SELECT A DAY
Number of Records: 450,713;   Date Range: 1/1/95 - 10/23/14
 
SHARE

PRINT THIS DATA

[ ← Previous Day ]
WEATHER ALMANAC - JULY 22, 2014
[ Next Day → ]
[ °C ]   °F
Weather ElementAverageHighLow
Temperature72 °F84.2 °F (3:55 pm)59 °F (5:35 am)
Dewpoint65.6 °F71.6 °F (5:15 pm)59 °F (5:35 am)
Humidity82 %100 % (1:55 am)54 % (4:15 pm)
Barometer30.17 in30.23 in (7:35 am)30.08 in (10:55 pm)
Wind Speed3.6 mph10.4 mph (5:15 pm)
Wind Gust16.1 mph (6:35 pm)
Weather ElementAverage
Visibility8.5 mi
Wind DirectionSE (130.4 °)

Weather ElementTotal
Precipitation---
Cooling Degree Days6.6 (Base 65)
Growing Degree Days21.6 (Base 50)
Averaged from 69 records on July 22, 2014
WEATHER CONDITIONS BREAKOUT
WIND DIRECTION BREAKOUT
WEATHER BY HOUR - JULY 22, 2014
[ °C ]   °F
Local TimeTemperatureDewpointHumidityBarometerVisibilityWind DirectionWind SpeedGust SpeedPrecipitationEventsConditions
12:35 AM64.4 °F62.6 °F94 %30.22 in10.0 miCalmClear
12:55 AM64.4 °F62.6 °F94 %30.22 in10.0 miCalmMostly Cloudy
1:15 AM64.4 °F62.6 °F94 %30.22 in10.0 miCalmOvercast
1:35 AM64.4 °F62.6 °F94 %30.21 in9.0 miCalmOvercast
1:55 AM62.6 °F62.6 °F100 %30.21 in9.0 miCalmPartly Cloudy
2:15 AM62.6 °F62.6 °F100 %30.21 in8.0 miCalmClear
2:35 AM62.6 °F60.8 °F94 %30.21 in10.0 miCalmClear
2:55 AM62.6 °F62.6 °F100 %30.21 in9.0 miCalmClear
3:15 AM62.6 °F62.6 °F100 %30.20 in9.0 miCalmClear
3:35 AM62.6 °F60.8 °F94 %30.20 in7.0 miCalmClear
3:55 AM62.6 °F60.8 °F94 %30.20 in10.0 miCalmClear
4:15 AM60.8 °F60.8 °F100 %30.21 in4.0 miCalmClear
4:35 AM60.8 °F60.8 °F100 %30.21 in10.0 miCalmClear
4:55 AM60.8 °F60.8 °F100 %30.21 in1.2 miCalmClear
5:15 AM60.8 °F60.8 °F100 %30.21 in9.0 miCalmClear
5:35 AM59.0 °F59.0 °F100 %30.21 in0.5 miCalmOvercast
5:55 AM59.0 °F59.0 °F100 %30.21 in0.8 miCalmMostly Cloudy
6:15 AM59.0 °F59.0 °F100 %30.21 in0.2 miCalmOvercast
6:35 AM60.8 °F60.8 °F100 %30.22 in0.2 miCalmOvercast
6:55 AM60.8 °F60.8 °F100 %30.22 in0.2 miCalmOvercast
7:15 AM62.6 °F62.6 °F100 %30.22 in0.5 miCalmOvercast
7:35 AM62.6 °F62.6 °F100 %30.23 in0.8 miCalmOvercast
7:55 AM64.4 °F64.4 °F100 %30.23 in2.0 miCalmMostly Cloudy
8:15 AM64.4 °F64.4 °F100 %30.23 in10.0 miCalmPartly Cloudy
8:35 AM66.2 °F64.4 °F94 %30.22 in10.0 miCalmClear
8:55 AM69.8 °F66.2 °F88 %30.22 in10.0 miWest (260°)3.5 mphClear
9:15 AM71.6 °F66.2 °F83 %30.21 in10.0 miWest (280°)4.6 mphClear
9:35 AM71.6 °F66.2 °F83 %30.21 in10.0 miWest (280°)3.5 mphClear
9:55 AM73.4 °F66.2 °F78 %30.21 in10.0 miWest (260°)5.8 mphClear
10:15 AM73.4 °F66.2 °F78 %30.20 in10.0 miSW (230°)5.8 mphClear
10:35 AM75.2 °F68.0 °F78 %30.20 in10.0 miCalmMostly Cloudy
10:55 AM75.2 °F68.0 °F78 %30.20 in10.0 miNW (310°)4.6 mphMostly Cloudy
11:15 AM77.0 °F68.0 °F74 %30.20 in10.0 miWSW (240°)5.8 mphPartly Cloudy
11:35 AM78.8 °F68.0 °F69 %30.20 in10.0 miWNW (290°)6.9 mphMostly Cloudy
11:55 AM77.0 °F68.0 °F74 %30.19 in10.0 miWSW (250°)5.8 mphMostly Cloudy
12:15 PM78.8 °F68.0 °F69 %30.19 in10.0 miNW (310°)8.1 mphMostly Cloudy
12:35 PM78.8 °F68.0 °F69 %30.18 in10.0 miCalmMostly Cloudy
1:15 PM80.6 °F68.0 °F65 %30.17 in7.0 miSW (230°)5.8 mphMostly Cloudy
1:35 PM80.6 °F66.2 °F61 %30.16 in10.0 miSW (220°)3.5 mphMostly Cloudy
1:55 PM80.6 °F68.0 °F65 %30.16 in10.0 miWSW (250°)5.8 mphMostly Cloudy
2:15 PM82.4 °F66.2 °F58 %30.15 in10.0 miWest (270°)5.8 mphMostly Cloudy
2:35 PM82.4 °F66.2 °F58 %30.15 in10.0 miWest (270°)9.2 mphMostly Cloudy
2:55 PM82.4 °F66.2 °F58 %30.14 in10.0 miSSW (210°)9.2 mphScattered Clouds
3:15 PM82.4 °F66.2 °F58 %30.14 in10.0 miWSW (250°)6.9 mphPartly Cloudy
3:35 PM82.4 °F66.2 °F58 %30.13 in10.0 miWest (270°)8.1 mphClear
3:55 PM84.2 °F66.2 °F55 %30.13 in10.0 miSW (230°)6.9 mphPartly Cloudy
4:15 PM82.4 °F64.4 °F54 %30.12 in10.0 miSW (230°)8.1 mphPartly Cloudy
4:35 PM84.2 °F66.2 °F55 %30.11 in10.0 miSW (220°)9.2 mphPartly Cloudy
4:55 PM82.4 °F64.4 °F54 %30.11 in10.0 miSW (230°)5.8 mphScattered Clouds
5:15 PM82.4 °F71.6 °F70 %30.11 in10.0 miSSE (160°)10.4 mphMostly Cloudy
5:35 PM82.4 °F69.8 °F66 %30.10 in10.0 miSouth (190°)6.9 mphPartly Cloudy
5:55 PM80.6 °F69.8 °F70 %30.10 in10.0 miSSW (210°)8.1 mphMostly Cloudy
6:15 PM80.6 °F69.8 °F70 %30.11 in10.0 miSSW (200°)9.2 mphMostly Cloudy
6:35 PM78.8 °F69.8 °F74 %30.11 in10.0 miSSW (200°)5.8 mph16.1 mphPartly Cloudy
6:55 PM78.8 °F69.8 °F74 %30.11 in10.0 miSSW (210°)8.1 mphPartly Cloudy
7:15 PM78.8 °F69.8 °F74 %30.11 in10.0 miSouth (190°)8.1 mphScattered Clouds
7:35 PM78.8 °F69.8 °F74 %30.10 in10.0 miSSW (200°)9.2 mphPartly Cloudy
7:55 PM77.0 °F69.8 °F78 %30.11 in10.0 miSSW (200°)6.9 mphPartly Cloudy
8:15 PM75.2 °F69.8 °F83 %30.11 in10.0 miSSW (210°)5.8 mphPartly Cloudy
8:35 PM75.2 °F68.0 °F78 %30.11 in10.0 miSSW (210°)4.6 mphPartly Cloudy
8:55 PM75.2 °F68.0 °F78 %30.10 in10.0 miSSW (200°)4.6 mphClear
9:15 PM73.4 °F68.0 °F83 %30.10 in10.0 miSouth (190°)4.6 mphClear
9:35 PM73.4 °F68.0 °F83 %30.10 in10.0 miCalmClear
10:15 PM71.6 °F68.0 °F88 %30.10 in10.0 miSSW (210°)4.6 mphClear
10:35 PM71.6 °F68.0 °F88 %30.10 in10.0 miSSW (210°)3.5 mphClear
10:55 PM71.6 °F68.0 °F88 %30.08 in10.0 miSSW (210°)4.6 mphClear
11:15 PM71.6 °F68.0 °F88 %30.08 in10.0 miSSW (210°)4.6 mphClear
11:35 PM71.6 °F68.0 °F88 %30.08 in10.0 miCalmClear
11:55 PM71.6 °F68.0 °F88 %30.08 in10.0 miCalmClear
Hourly data recorded from KMSV, located miles away from Rock Hill, New York







STORIES FROM OUR PARTNERS